Overview Statistics Trail Chart Weather Telemetry Raw packets
 

This is the latest recevied weather packets stored in our database for station/object YO8PIC-13. If no packets are shown the sender has not sent any weather packets the latest 10 day(s).

<< 20 21 22 23 24 25 26 >>
Time Temp. Humidity Pressure Rain* Wind** Luminosity Snow
1788252139 27.78° C 30% 1018.2 hPa - - - -
1788251540 27.22° C 30% 1018.2 hPa - - - -
1788250940 27.78° C 28% 1018.1 hPa - - - -
1788250339 27.78° C 28% 1018 hPa - - - -
1788249739 29.44° C 27% 1018 hPa - - - -
1788249139 27.78° C 28% 1018.1 hPa - - - -
1788248540 28.89° C 28% 1018.2 hPa - - - -
1788247940 29.44° C 30% 1018.1 hPa - - - -
1788247339 28.89° C 30% 1018.1 hPa - - - -
1788246740 26.67° C 34% 1018.1 hPa - - - -
1788246139 26.67° C 34% 1018.1 hPa - - - -
1788245539 26.67° C 35% 1017.9 hPa - - - -
1788244940 26.11° C 36% 1018 hPa - - - -
1788244340 25.56° C 37% 1018 hPa - - - -
1788243740 24.44° C 38% 1018 hPa - - - -
1788243140 24.44° C 38% 1017.9 hPa - - - -
1788242540 24.44° C 39% 1017.7 hPa - - - -
1788241939 22.78° C 42% 1017.7 hPa - - - -
1788241339 21.67° C 43% 1017.9 hPa - - - -
1788240739 21.11° C 46% 1017.9 hPa - - - -
1788240139 21.11° C 46% 1018 hPa - - - -
1788239540 21.11° C 45% 1018 hPa - - - -
1788238940 20.56° C 46% 1018 hPa - - - -
1788238339 20.56° C 46% 1018.1 hPa - - - -
1788237739 20.56° C 47% 1017.9 hPa - - - -

* Rain since midnight (hover to see other rain measurements)
** Current wind speed in m/s (hover to see current wind gust speed)